Theta_e
317 318 319 320 320 322 322 322 322 323 324 323 323 324 321 325 336 338 337 335 336 336 340 339 333 330 329 337 339 339 338 336 333
317 317 317 317 318 319 319 319 320 320 320 321 322 322 312 312 316 329 336 336 336 337 339 340 339 337 334 336 338 338 338 338 336
316 315 317 317 318 318 319 319 319 319 319 318 314 311 310 309 309 311 318 330 333 334 333 337 338 337 337 334 333 337 337 338 337
313 314 315 316 318 319 319 319 320 319 318 316 315 314 314 314 312 309 309 311 316 328 333 333 336 338 336 336 333 332 337 337 337
313 313 314 314 318 319 319 319 319 318 314 315 315 315 315 315 315 315 314 318 320 322 325 328 334 335 336 336 336 334 332 334 335
312 314 314 314 314 314 316 317 314 314 314 314 314 315 315 315 315 315 315 319 320 321 321 321 322 323 327 329 331 335 335 335 335
311 312 314 313 313 313 313 313 314 314 315 315 316 316 315 315 315 315 315 316 319 320 320 320 321 322 322 323 322 325 329 333 335
309 311 313 313 312 310 311 313 314 314 315 315 315 316 317 317 318 318 316 316 319 321 322 322 323 323 324 324 324 324 324 325 327
309 310 311 312 311 309 311 312 313 313 313 314 315 316 316 317 318 318 317 317 319 322 323 323 323 324 323 323 324 324 324 324 324
307 309 310 311 310 309 311 312 312 311 311 312 314 315 314 316 318 317 317 319 320 320 323 324 324 324 324 323 322 322 322 323 324
307 308 309 310 310 309 311 311 310 309 310 311 314 314 313 317 318 317 318 320 318 319 321 324 324 324 324 324 324 323 321 321 322
307 307 308 309 309 309 310 309 309 309 308 309 311 311 313 317 318 318 320 319 318 318 319 321 322 322 322 323 323 324 324 322 321
307 307 307 308 309 309 309 309 309 308 307 308 308 310 311 313 317 319 319 319 318 318 318 319 319 320 322 324 323 324 324 324 324
307 307 307 307 307 308 308 309 309 308 307 306 309 312 316 317 317 320 319 319 318 317 318 316 317 318 320 320 321 323 322 324 324
306 306 306 306 306 307 308 308 308 308 306 308 309 313 312 314 318 315 315 314 314 313 317 316 316 317 318 317 318 319 323 325 326
306 305 305 306 306 306 307 308 308 308 307 308 309 311 313 313 312 312 312 311 309 308 311 315 315 315 315 315 316 317 321 324 324
305 305 304 304 305 306 306 307 307 307 307 307 307 306 309 312 311 309 310 310 310 305 310 307 312 314 314 314 315 316 318 323 323
304 303 302 303 305 305 305 306 306 307 307 307 307 306 307 307 309 309 309 309 307 303 305 307 312 312 312 314 314 313 315 320 321
302 301 301 302 302 303 303 304 304 305 306 306 306 306 306 307 305 308 306 307 304 303 302 309 313 311 309 309 309 310 313 316 319
301 301 301 301 301 301 302 302 303 304 305 305 305 305 305 306 306 304 304 304 303 302 303 314 311 309 307 307 305 303 304 313 316
Wind_Speed
9 8 9 9 10 10 9 8 8 8 9 10 11 11 12 11 10 11 12 12 11 13 13 15 13 13 13 15 16 15 14 12 11
10 9 11 10 9 9 10 10 9 9 9 9 10 12 13 12 12 12 12 13 14 14 14 17 16 15 15 16 17 18 18 17 15
10 10 12 11 11 11 11 11 11 10 10 8 8 8 10 12 13 12 13 14 14 15 15 16 19 19 17 17 18 19 19 20 18
12 11 12 12 12 12 12 11 12 11 10 11 9 8 9 10 10 9 9 9 11 12 13 11 13 19 21 20 20 22 22 21 21
12 11 11 12 11 12 13 12 13 10 11 9 9 9 7 8 9 8 6 5 7 8 9 9 9 9 15 19 21 22 22 23 23
10 11 11 11 11 11 12 11 11 11 11 11 11 10 9 8 7 8 7 7 7 9 11 12 13 14 15 16 14 15 21 24 25
9 9 10 11 12 12 12 11 11 12 13 13 12 12 10 10 8 7 9 9 9 10 11 13 14 14 14 16 19 19 18 18 20
9 7 9 12 13 15 13 12 13 14 15 13 12 12 11 10 8 8 8 9 10 11 13 14 14 15 16 17 17 17 18 19 20
11 10 11 12 15 14 13 14 14 14 13 13 13 11 11 10 9 7 7 9 11 12 13 14 14 15 16 17 18 18 19 20 21
12 11 11 13 16 15 14 14 16 16 15 13 12 11 11 8 7 5 6 8 11 14 13 14 15 15 16 17 18 19 20 20 22
14 12 12 13 16 14 14 15 16 17 16 14 12 12 12 6 5 3 5 10 14 12 12 14 14 14 16 17 18 20 21 22 23
13 13 13 13 14 14 14 15 15 17 17 15 13 14 10 5 5 2 5 11 13 13 14 15 15 13 13 15 17 18 20 22 25
13 13 13 13 13 14 14 15 16 19 19 19 17 16 12 5 0 2 6 11 14 16 17 16 19 16 16 15 16 16 18 21 23
14 14 13 13 13 13 14 14 17 19 20 21 17 10 8 5 2 2 8 11 14 17 18 20 19 19 17 18 19 21 21 25 29
13 13 13 12 12 13 14 14 15 16 21 16 14 6 15 15 8 10 9 11 14 18 18 21 22 20 20 22 23 22 26 30 27
12 12 12 12 11 12 12 14 15 15 21 13 12 6 4 8 7 9 13 14 18 19 18 18 22 21 21 21 23 26 28 31 37
10 11 12 12 11 10 11 12 12 8 14 8 4 4 5 6 3 15 15 18 20 23 17 21 19 19 20 21 22 27 28 34 40
9 12 12 11 10 10 10 10 10 9 9 9 5 3 2 9 6 12 18 20 26 25 21 18 14 16 18 22 25 27 27 32 36
10 11 11 11 10 10 10 10 9 8 9 5 6 4 3 1 4 8 22 19 24 24 22 18 11 15 19 23 25 28 27 28 29
11 11 11 11 11 10 10 9 9 7 7 7 7 6 9 1 2 4 9 23 24 24 17 11 13 16 20 23 25 28 26 25 25
Wind_Direction
17 14 11 7 0 352 349 344 339 333 326 322 319 313 289 286 279 274 273 272 271 275 259 245 249 249 244 237 233 231 226 226 227
24 21 9 0 1 358 350 347 345 340 332 325 316 308 301 298 286 275 276 271 273 285 281 247 243 249 249 239 238 237 230 229 227
17 18 14 15 10 7 3 357 352 348 343 345 342 338 326 307 292 282 274 274 280 282 295 277 251 252 255 249 242 240 238 231 233
24 25 20 19 15 9 3 6 6 1 2 1 357 352 354 349 343 308 289 290 291 298 301 296 271 253 254 258 250 246 242 239 237
12 7 15 16 11 10 6 0 353 355 359 357 350 349 357 354 357 358 3 342 324 319 320 313 295 288 267 267 263 254 256 252 245
20 21 16 17 16 10 10 13 8 360 357 352 348 340 342 345 350 349 356 344 331 323 320 308 304 294 286 288 294 278 265 257 256
4 13 18 13 9 7 6 6 4 6 8 12 11 8 354 339 336 323 318 325 326 322 320 316 312 311 306 297 285 282 283 280 271
18 20 15 11 6 4 8 11 9 6 0 0 0 356 349 342 352 352 340 338 338 333 327 321 316 312 305 300 295 290 285 281 275
22 22 15 12 5 6 9 8 4 0 354 354 353 355 354 351 338 344 350 341 336 330 326 323 317 314 309 301 293 290 286 281 276
18 19 13 9 5 5 4 3 359 355 350 347 344 344 339 332 343 354 346 342 337 328 326 322 313 308 305 301 293 287 284 281 275
11 10 10 5 4 3 0 360 354 353 349 346 344 338 330 327 340 340 352 346 347 350 344 340 323 308 303 302 299 290 287 286 281
2 3 3 0 358 357 355 355 352 351 348 344 344 339 335 315 327 26 0 13 23 15 12 5 359 347 336 326 304 293 288 277 276
356 357 358 354 353 351 352 354 351 351 349 343 345 338 316 284 342 98 21 25 17 10 11 6 10 8 359 353 351 332 317 303 288
353 353 355 349 348 351 353 354 353 351 350 346 348 2 34 62 126 89 35 24 14 6 4 3 2 5 4 1 357 345 328 319 301
357 359 358 354 352 353 356 355 353 358 352 347 357 48 83 68 83 57 43 30 8 4 0 356 359 0 1 0 360 352 343 345 317
2 6 4 1 359 359 357 354 357 4 4 355 3 38 161 30 50 39 36 14 7 357 354 350 354 357 0 5 5 2 358 342 342
2 9 6 359 358 0 3 2 356 348 11 354 327 357 334 316 351 358 8 352 347 351 348 348 349 356 2 3 2 8 4 1 1
9 2 5 8 4 2 1 357 0 351 358 32 52 12 333 334 302 344 352 341 339 345 347 348 358 360 9 8 5 5 8 10 8
6 7 10 11 7 1 358 351 353 351 349 2 352 352 273 310 318 315 324 330 336 343 346 345 14 16 17 16 13 7 6 8 10
12 12 12 12 6 0 355 355 353 353 339 336 338 343 332 219 286 300 328 331 331 339 357 31 34 23 16 14 7 4 3 3 9